Weather in Ilyich

Russia / Karachay-Cherkess Republic     43°57′08″N   41°31′38″E
temp.,
°C
wind,
m/s
gust,
m/s
humid.,
%
clouds,
%
prec.,
mm/h
press.,
hPa
HPBL,
m
22 april, thu
thu2200:00+5ssw119736 0.0 102119
03:00+5s1196100 0.0 102111
06:00+6sw2294100 0.0 102133
09:00+10ne1180100 0.2 1020575
12:00+10ne3381100 0.4 1020765
15:00+10n2280100 1.0 1020576
18:00+8nnw2394100 0.6 1021239
21:00+7nnw2596100 9.3 1023466
23 april, fri
fri2300:00+6nnw1295100 2.6 1023209
03:00+6n1194100 3.3 1024113
06:00+5sse009463 0.1 102524
09:00+9ese117435 0.1 1024733
12:00+13nne335476 0.1 10221694
15:00+13nne325765 0.2 10211364
18:00+11ne3469100 0.0 1021421
21:00+8ene1178100 0.0 102010
24 april, sat
sat2400:00+6sw2285100 0.0 102014
03:00+6sw2275100 0.0 102022
06:00+7nnw0081100 0.0 102013
09:00+11ne2159100 0.0 1018687
12:00+14nne335395 0.0 10181251
15:00+13n436379 0.4 1018974
18:00+10nne2378100 0.3 1019225
21:00+9n1181100 0.3 102023
25 april, sun
sun2500:00+8nne2288100 0.0 1021128
03:00+7nne2288100 0.0 1021255
06:00+7ene2294100 0.1 1020265
09:00+8ne2290100 0.1 1019469
12:00+9nne2287100 0.1 1017583
15:00+9nne3493100 0.3 1016525
18:00+7n2498100 0.1 1016431
21:00+6ne2299100 0.1 1016187
26 april, mon
mon2600:00+6n1199100 0.6 101599
03:00+6nnw1198100 0.6 1015129
06:00+6n1199100 0.0 1015245
09:00+7nne1196100 0.0 1015323
12:00+7nne1193100 0.6 1015395
15:00+7nne2396100 1.1 1015412
18:00+6ene1297100 1.1 1016191
21:00+6ese1198100 1.3 1017104